User: anonymous   Login
Location: Unspecified
(0.0000°N, 0.0000°E)
Time: 06:15:24
(UTC+00:00)
Language:

YUBELEINY 2 - Orbit

View from above orbital plane
View from above orbital plane
View from above satellite
View from above satellite

Ground track
Ground track

The orbit data is extracted from the following two-line orbital elements,

1 38735U 12041C   17119.89975123 +.00000022 +00000-0 +86708-4 0  9994
2 38735 082.4781 354.3017 0017274 130.9326 229.3253 12.42574037215678
Epoch (UTC): 29 April 2017 21:35:38
Eccentricity: 0.0017274
inclination: 82.4781°
perigee height: 1482 km
apogee height: 1509 km
right ascension of ascending node: 354.3017°
argument of perigee: 130.9326°
revolutions per day: 12.42574037
mean anomaly at epoch: 229.3253°
orbit number at epoch: 21567

The dashed part of the orbit path shows where the satellite is in the earth's shadow,  

DLR